Weather History for HELX - November, 2013

Change the Weather History Date:

Thursday, November 28, 2013

  Actual Average Record
Temperature  
Mean Temperature 77 °F -  
Max Temperature 93 °F 73 °F 93 °F (2013)
Min Temperature 61 °F 47 °F 44 °F (2004)
Cooling Degree Days 12    
Growing Degree Days 27 (Base 50)    
Moisture  
Dew Point 53 °F    
Average Humidity 42    
Maximum Humidity 59    
Minimum Humidity 20    
Precipitation  
Precipitation 0.00 in 0.00 in - ()
Sea Level Pressure  
Sea Level Pressure 29.97 in    
Wind  
Wind Speed 1 mph ()    
Max Wind Speed 5 mph    
Max Gust Speed -    
Visibility 5.2 miles    
Events      
Averages and records for this station are not official NWS values.
T = Trace of Precipitation, MM = Missing Value Source: Averaged Metar Reports

Daily Weather History Graph

Daily Weather History Graph

Search for Another Location

Airport or City:

Trip Planner

Search our weather history database for the weather conditions in past years. The results will help you decide how hot, cold, wet, or windy it might be!

Date:

Astronomy

Nov. 28, 2013 Rise Set
Actual Time 6:16 AM EET 4:57 PM EET
Civil Twilight 5:51 AM EET 5:22 PM EET
Nautical Twilight 5:23 AM EET 5:50 PM EET
Astronomical Twilight 4:55 AM EET 6:18 PM EET
Moon 1:25 AM EET (11/28) 1:31 PM EET (11/28)
Length of Visible Light 11h 31m
Length of Day
10h 41m
Waning Crescent, 25% of the Moon is Illuminated
Nov 28
Waning Crescent
Dec 3
New
Dec 9
First Quarter
Dec 17
Full
Dec 25
Last Quarter

Hourly Weather History & Observations

Time (EET) Temp. Heat Index Dew Point Humidity Pressure Visibility Wind Dir Wind Speed Gust Speed Precip Events Conditions
12:00 AM 68.0 °F - 51.8 °F 56% 29.98 in - Calm Calm - N/A   Clear
1:00 AM 68.0 °F - 48.2 °F 49% 29.98 in - Calm Calm - N/A   Clear
2:00 AM 68 °F - 48 °F 37% 29.99 in 6 mi Calm Calm - -  
2:00 AM 68.0 °F - 48.2 °F 49% 29.98 in - Calm Calm - N/A   Clear
3:00 AM 68.0 °F - 46.4 °F 46% 29.98 in - Calm Calm - N/A   Clear
4:00 AM 66.2 °F - 48.2 °F 52% 29.98 in - Calm Calm - N/A   Clear
5:00 AM 64 °F - 47 °F 43% 29.99 in 6 mi Calm Calm - -  
5:00 AM 64.4 °F - 46.4 °F 52% 29.98 in - Calm Calm - N/A   Clear
6:00 AM 60.8 °F - 46.4 °F 59% 30.01 in - Calm Calm - N/A   Clear
7:00 AM 64.4 °F - 44.6 °F 49% 30.01 in - Calm Calm - N/A   Clear
8:00 AM 70 °F - 51 °F 40% 30.03 in 6 mi East 2.3 mph - -   Clear
8:00 AM 69.8 °F - 51.8 °F 53% 30.01 in - East 2.3 mph - N/A   Clear
9:00 AM 75.2 °F - 50.0 °F 41% 30.04 in - Calm Calm - N/A   Clear
10:00 AM 80.6 °F - 48.2 °F 32% 30.01 in - Calm Calm - N/A   Clear
11:00 AM 83 °F - 59 °F 34% 30.00 in 6 mi North 3.5 mph - -   Clear
11:00 AM 82.4 °F 82.5 °F 59.0 °F 45% 30.01 in - North 3.5 mph - N/A   Clear
12:00 PM 87.8 °F 87.1 °F 59.0 °F 38% 29.98 in - Calm Calm - N/A   Clear
1:00 PM 91.4 °F 90.7 °F 59.0 °F 34% 29.95 in - Calm Calm - N/A   Clear
2:00 PM 93 °F - 57 °F 20% 29.93 in 6 mi NW 3.5 mph - -   Clear
2:00 PM 93.2 °F 91.9 °F 57.2 °F 30% 29.95 in - NW 3.5 mph - N/A   Clear
3:00 PM 93.2 °F 91.9 °F 57.2 °F 30% 29.92 in - NNW 2.3 mph - N/A   Clear
4:00 PM 89.6 °F 88.9 °F 59.0 °F 36% 29.92 in - Calm Calm - N/A   Clear
5:00 PM 87 °F - 58 °F 27% 29.91 in 6 mi North 2.3 mph - -   Clear
5:00 PM 86.0 °F 84.9 °F 57.2 °F 37% 29.92 in - North 2.3 mph - N/A   Clear
6:00 PM 82.4 °F 82.5 °F 59.0 °F 45% 29.95 in - Calm Calm - N/A   Clear
7:00 PM 80.6 °F 80.8 °F 57.2 °F 45% 29.95 in - Calm Calm - N/A   Clear
8:00 PM 78 °F - 54 °F 33% 29.94 in 6 mi SSE 2.3 mph - -   Clear
8:00 PM 77.0 °F - 53.6 °F 44% 29.95 in - SSE 2.3 mph - N/A   Clear
9:00 PM 75.2 °F - 53.6 °F 47% 29.95 in - ENE 4.6 mph - N/A   Clear
10:00 PM 71.6 °F - 51.8 °F 50% 29.95 in - WNW 2.3 mph - N/A   Clear
11:00 PM 72 °F - 56 °F 46% 29.96 in 0 mi Calm Calm - -  
11:00 PM 71.6 °F - 55.4 °F 57% 29.95 in - Calm Calm - N/A   Clear